Regional Weather Roundup
Issued by NWS Charleston, SC

Current Version | Previous Version | Text Only | Print | Product List | Glossary Off
Versions: 1 2 3 4 5 6 7 8 9 10 11 12 13 14 15 16 17 18 19 20 21 22 23 24 25 26 27 28 29 30 31 32 33 34 35 36 37 38 39 40 41 42 43 44 45 46 47 48 49 50
000 ASUS42 KCHS 291227 RWRCHS REGIONAL WEATHER ROUNDUP NATIONAL WEATHER SERVICE CHARLESTON SC 800 AM EDT THU JUN 29 2017 NOTE: "FAIR" INDICATES FEW OR NO CLOUDS BELOW 12,000 FEET WITH NO SIGNIFICANT WEATHER AND/OR OBSTRUCTIONS TO VISIBILITY. NOT ALL STATIONS ARE QUALITY CONTROLLED. USE DATA WITH CAUTION... ESPECIALLY DEWPOINT OBSERVATIONS. SCZ027-030-031-034>040-042>050-291300- ...SOUTHEAST SOUTH CAROLINA... CITY SKY/WX TMP DP RH WIND PRES REMARKS N CHARLESTON MOSUNNY 76 67 73 NE8 30.18S 6HR MIN TEMP: 68; 6HR MAX TEMP: 76; WATERFRONT PRK N/A 78 72 81 NE7 30.16R JOHNS ISLAND N/A 81 73 78 NE8 30.18S PINOPOLIS N/A 75 68 78 VRB3 30.12R MONCKS CORNER FAIR 75 66 73 E3 30.20R SUMMERVILLE FAIR 73 68 83 CALM 30.20S BEAUFORT MCAS MOSUNNY 77 73 87 NE6 30.17R 6HR MIN TEMP: 74; 6HR MAX TEMP: 80; BEAUFORT ARPT FAIR 77 73 88 NE3 30.17R FOG HILTON HEAD IS MOSUNNY 81 72 74 NE6 30.18R WALTERBORO MOSUNNY 75 66 73 E6 30.20R ALLENDALE FAIR 73 66 78 CALM 30.18R ...SOUTHERN MIDLANDS AND PEE DEE... CITY SKY/WX TMP DP RH WIND PRES REMARKS GEORGETOWN FAIR 77 72 83 E5 30.21S KINGSTREE FAIR 70 64 83 CALM 30.21R ORANGEBURG SUNNY 72 66 81 E3 30.20R 6HR MIN TEMP: 64; 6HR MAX TEMP: 72; BARNWELL FAIR 77 68 73 E5 30.19S AIKEN FAIR 72 64 78 SE7 30.23S MANNING FAIR 70 66 88 E10G22 30.21R COLUMBIA MOSUNNY 72 63 73 E3 30.19S 6HR MIN TEMP: 64; 6HR MAX TEMP: 74; SUMTER SUNNY 71 62 73 CALM 30.18R 6HR MIN TEMP: 61; 6HR MAX TEMP: 71; FLORENCE SUNNY 69 63 81 CALM 30.21S 6HR MIN TEMP: 61; 6HR MAX TEMP: 69; MYRTLE BEACH SUNNY 73 66 78 CALM 30.22R N MYRTLE BEACH SUNNY 73 63 70 NE3 30.21R 6HR MIN TEMP: 63; 6HR MAX TEMP: 77; $$ GAZ063-065-086>088-099>101-113>116-118-119-134>141-150-291300- ...SOUTHEAST GEORGIA... CITY SKY/WX TMP DP RH WIND PRES REMARKS SAVANNAH ARPT CLOUDY 79 71 76 E5 30.17R 6HR MIN TEMP: 73; 6HR MAX TEMP: 79; HUNTER AAF MOSUNNY 80 73 78 CALM 30.13R 6HR MIN TEMP: 75; 6HR MAX TEMP: 80; FORT STEWART MOSUNNY 74 72 92 NE3 30.14R 6HR MIN TEMP: 72; 6HR MAX TEMP: 74; STATESBORO CLOUDY 75 75 99 E3 30.18R SYLVANIA CLOUDY 76 71 85 E5 30.19R CLAXTON FAIR 74 71 88 NE5 30.17R ...CSRA...CENTRAL AND FAR SOUTHEAST GEORGIA... CITY SKY/WX TMP DP RH WIND PRES REMARKS THOMSON PTSUNNY 73 67 81 SE3 30.24S AUGUSTA-BUSH CLOUDY 74 67 78 CALM 30.18R 6HR MIN TEMP: 67; 6HR MAX TEMP: 74; AUGUSTA-DANIEL CLOUDY 74 62 66 SE3 30.20R SWAINSBORO CLOUDY 72 70 94 E5 30.19R VIDALIA CLOUDY 77 72 83 E6 30.17R EASTMAN FAIR 77 71 80 E5 30.18S HAZLEHURST FAIR 77 76 97 CALM 30.15R ALMA CLOUDY 76 72 87 E3 30.14R 6HR MIN TEMP: 72; 6HR MAX TEMP: 76; WAYCROSS CLOUDY 77 77 100 E5 30.15R JESUP FAIR 77 72 83 CALM 30.15S BAXLEY FAIR 77 77 100 CALM 30.15R BRUNSWICK CLOUDY 79 79 100 NE3 30.15R SAINT SIMONS CLOUDY 81 75 82 E7 30.14R 6HR MIN TEMP: 79; 6HR MAX TEMP: 81; $$ SCZ027-028-034-036>038-045-046-048>050-GAZ119-141-291300- ...LAKE AND SUPPLEMENTAL COASTAL OBSERVATIONS... STATION/POSITION TIME TEMP WIND PRES WAVE SWELL AIR SEA DIR/SP/G HT/PER HT/PER/DIR (UTC) (F) (DEG/KT/KT) (MB) (FT/S) (FT/S/D) WINYAH BAY 1130 74 CALM 1022.0S LAKE MURRAY 1220 74 CALM / 4 1022.0 ACE BASIN NERRS 1145 78 CALM 1022.0R FORT PULASKI 1200 81 83 110/ 11/ 12 1021.7 SAPELO ISLAND 1200 81 CALM 1021.0 $$ ANZ835-935-AMZ111-154-330-350-352-354-370-450-454-472-291300- ...C-MAN AND BUOY OBSERVATIONS... STATION/POSITION TIME TEMP WIND PRES WAVE SWELL AIR SEA DIR/SP/G HT/PER HT/PER/DIR (UTC) (F) (DEG/KT/KT) (MB) (FT/S) (FT/S/D) BUOY 41004 1210 80 81 80/ 10/ 12 1021.8 BUOY 41008 1150 81 82 100/ 8/ 10 1020.4R 3/ 5 3/100/ 5 FOLLY BEACH CMAN 1200 80 70/ 13/ 15 1022.4R CAPERS NEARSHORE 1208 86 82 80/ 12/ 17 1021.9R FRIPP NEARSHORE 1208 81 82 100/ 12/ 14 1021.3R STATION/POSITION TIME TEMP WIND PRES WAVE SWELL AIR SEA DIR/SP/G HT/PER HT/PER/DIR (UTC) (F) (DEG/KT/KT) (MB) (FT/S) (FT/S/D) 5E ST. MARYS GA 1200 81 N/A 3/ 6 FRYING PAN BUOY 1210 79 79 50/ 8/ 10 1022.8 BUOY 41025 1150 79 83 100/ 8/ 10 1023.6R 2/ 7 2/130/ 7 CAPE LOOKOUT NC 1200 78 40/ 9/ 11 1023.1R BUOY 41002 1150 80 80 60/ 12/ 14 1021.7R 3/ 8 2/120/ 8 BUOY 41010 1210 82 83 80/ 6/ 8 1019.6 ST AUGUSTINE FL 1200 80 80 120/ 3/ 4 1020.1R $$

USA.gov is the U.S. government's official web portal to all federal, state and local government web resources and services.